星链-35542(STARLINK-35542)
导读
STARLINK-35542是美国于2025年10月19日发射的星链系列卫星,归属SpaceX星链项目。星链项目旨在搭建全球卫星互联网星座,为全球偏远地区、海洋等网络覆盖薄弱区域提供高速互联网接入服务,该卫星入轨后将和其他星链卫星协同组网,进一步完善星链星座的通信覆盖能力与服务容量。
Basic Information
目录编号:
66064
目录名称:
STARLINK-35542
国际标识:
2025-235G
轨道中心:
EARTH
卫星名称:
星链-35542
卫星全名:
星链-35542(STARLINK-35542)
卫星状态:
在轨 (已飞行320 天)
发射日期:
2025-10-19 UTC
国别 :
美国
(US)
星等 :
--
Orbit Information
| 数据来源 | 国际轨道数据 |
| 星历时间: | 2026-09-02T22:00:02+0800 1天前 查看轨道信息 |
| 半长轴: | 6840.912km |
| 偏心率: | 0.0000761 |
| 轨道倾角: | 53.159° |
| 近地点辐角 | 87.396° |
| 升交点赤经 | 143.571° |
| 平近点角 | 334.725° |
| 近地点: | 462.254km |
| 远地点: | 463.296km |
| 周期: | 93.849分钟 |
| 每日圈数: | 15.34376 |
Detailed Information
固有亮度:
5
最大亮度:
2.5
卫星平台:
Starlink V1.0
覆盖范围:
全球
运营商:
太空探索技术公司
运营商所在国:
美国
制造商(研发单位):
太空探索技术公司
制造商所在国:
美国
使用方式:
暂无
Satellite Introduction
Starlink 计划是 SpaceX 推出的全球卫星互联网项目,通过发射低轨道卫星,为全球尤其是偏远地区提供高速、低延迟的互联网服务。自 2019 年起,Starlink 已部署数千颗卫星,旨在缩小全球数字鸿沟,推动互联网普及。该项目还为军事、航空等行业提供通信支持,带来广泛经济效益。
2D Orbit Map
3D Orbit Map
Orbit Altitude Analysis Chart
Orbit Inclination Analysis Chart
Orbit Comprehensive Analysis Chart
View Comprehensive ChartConjunction Data List
| Event ID | Objects | TCA | Miss Dist (km) | Collision Risk Probability | Collision Risk Index (CRI) | Action |
|---|---|---|---|---|---|---|
| CDM_260905-105506-550206-606421 |
STARLINK-35114
(65502)
STARLINK-35542
(66064) | 2026-09-05T 10:55:38+0000 |
0.468 km
远距离 | 8.337393E-5 中风险 | 0.73 | |
| CDM_260905-064205-210506-606421 |
STARLINK-3706
(52105)
STARLINK-35542
(66064) | 2026-09-05T 06:42:10+0000 |
1.136 km
极远距离 | 1.488634E-5 中风险 | 0.58 | |
| CDM_260905-094905-211506-606421 |
STARLINK-3685
(52115)
STARLINK-35542
(66064) | 2026-09-05T 09:49:22+0000 |
1.139 km
极远距离 | 1.476546E-5 中风险 | 0.58 | |
| CDM_260905-140706-606406-828521 |
STARLINK-35542
(66064)
STARLINK-36725
(68285) | 2026-09-05T 14:07:34+0000 |
1.273 km
极远距离 | 7.081083E-6 低风险 | 0.52 | |
| CDM_260831-024906-606406-881921 |
STARLINK-35542
(66064)
STARLINK-37409
(68819) | 2026-08-31T 02:49:11+0000 |
1.756 km
极远距离 | 3.040443E-6 低风险 | 0.45 | |
| CDM_260905-094806-168106-606421 |
STARLINK-32426
(61681)
STARLINK-35542
(66064) | 2026-09-05T 09:48:59+0000 |
2.114 km
极远距离 | 2.179989E-6 低风险 | 0.42 | |
| CDM_260905-093905-479006-606421 |
STARLINK-5445
(54790)
STARLINK-35542
(66064) | 2026-09-05T 09:39:15+0000 |
2.168 km
极远距离 | 2.071341E-6 低风险 | 0.41 | |
| CDM_260905-061606-586806-606421 |
STARLINK-35450
(65868)
STARLINK-35542
(66064) | 2026-09-05T 06:16:16+0000 |
1.754 km
极远距离 | 1.986723E-6 低风险 | 0.41 | |
| CDM_260828-200006-606406-914621 |
STARLINK-35542
(66064)
STARLINK-37639
(69146) | 2026-08-28T 20:00:41+0000 |
2.480 km
极远距离 | 1.507687E-6 低风险 | 0.39 | |
| CDM_260827-202906-606406-949121 |
STARLINK-35542
(66064)
STARLINK-37856
(69491) | 2026-08-27T 20:29:57+0000 |
2.520 km
极远距离 | 1.472574E-6 低风险 | 0.38 |

